www.pogodaiklimat.ru
ПОГОДА в Портервилле
Время
и дата
22:56 29.01
23:56 29.01
00:56 30.01
01:28 30.01
01:40 30.01
01:56 30.01
02:54 30.01
02:56 30.01
03:18 30.01
03:56 30.01
04:56 30.01
05:26 30.01
05:32 30.01
05:38 30.01
05:47 30.01
05:54 30.01
05:56 30.01
06:06 30.01
06:56 30.01
07:56 30.01
08:56 30.01
09:56 30.01
10:56 30.01
11:11 30.01
11:15 30.01
11:20 30.01
11:41 30.01
11:56 30.01
12:27 30.01
12:56 30.01
13:26 30.01
13:56 30.01
14:56 30.01
15:56 30.01
16:56 30.01
17:56 30.01
18:29 30.01
18:56 30.01
19:56 30.01
20:56 30.01
21:56 30.01
22:56 30.01
23:56 30.01
00:56 31.01
01:56 31.01
02:56 31.01
03:56 31.01
04:14 31.01
Ветер
(напр.,м/с)
Видим. Явления Облачность Т
(С)
Тd
(С)
f
(%)
Тe
(С)
Тes
(С)
Комфортность P
(гПа)
Po
(гПа)
Тmin
(С)
Tmax
(С)
R
(мм)
R24
(мм)
S
(см)
ЮВ 2 16 км 5/0 3000 m
[Ac]
+5.6 +4.4 92 +3 +3 1012.5 996.3
Ю 2 16 км 8/0 2850 m
[Ac]
+5.6 +4.4 92 +3 +3 1012.9 996.6
штиль 0 16 км 8/5 1230 m
[Ac]
+5.0 +4.4 96 +4 +4 1013.3 997.0
С 2 16 км 10/10 660 м +6.0 +5.0 93 +3 +3 997.3
штиль 0 16 км 10/10 120 м +6.0 +5.0 93 +5 +5 997.3
С 2 16 км 10/10 120 м +6.1 +5.0 93 +4 +4 1013.7 997.3
В 2 16 км 10/10 180 м +6.0 +6.0 100 +3 +3 997.6
В 2 16 км 10/10 180 м +6.1 +5.6 97 +3 +3 1014.1 997.6
В 2 16 км 10/2 180 m
[Ac]
+6.0 +5.0 93 +3 +3 997.6
ЮВ 2 16 км 8/0 2400 m
[Ac]
+4.4 +3.9 97 +1 +1 1014.3 997.6 +4.4 +6.7 3.6
Ю 2 16 км ясно +2.8 +2.2 96 -1 -1 1014.3 997.6
ЮЗ 2 3 км дымка ясно +3.0 +3.0 100 0 0 998.0
штиль 0 1 км дымка ясно +3.0 +3.0 100 +2 +2 998.3
СЗ 2 1 км дымка ?/? +2.0 +2.0 100 -2 -2 998.3
СЗ 3 2 км дымка 5/5 30 м +2.0 +2.0 100 -3 -3 998.3
З 2 1 км дымка 8/8 30 м +2.0 +2.0 100 -2 -2 998.6
ЮЗ 2 1 км дымка 8/8 30 м +2.2 +1.7 96 -1 -1 1015.1 998.6
З 2 400 м туман 8/8 30 м +2.0 +2.0 100 -2 -2 998.6
СЗ 2 400 м туман 10/10 30 м +3.9 +3.9 100 +1 +1 1015.9 999.3
С 2 400 м туман 10/10 30 м +4.4 +3.9 97 +1 +1 1016.9 1000.3
штиль 0 <100 м туман 10/10 30 м +5.0 +5.0 100 +4 +4 1018.0 1001.3
С 3 400 м слабый дождь, туман 10/10 30 m
[Ns]
+5.6 +5.6 100 +2 +2 1018.7 1002.3 +1.7 +5.6
СЗ 4 400 м туман 10/10 30 м +5.6 +5.6 100 +1 +1 1019.0 1002.3
СЗ 3 1 км дымка 10/10 30 м +6.0 +6.0 100 +2 +2 1002.3
С 3 2 км дымка 10/10 30 м +6.0 +6.0 100 +2 +2 1002.3
С 2 5 км дымка 10/10 30 м +6.0 +6.0 100 +3 +3 1002.3
штиль 0 11 км 10/10 90 м +6.0 +6.0 100 +5 +5 1002.3
штиль 0 14 км 10/10 150 м +6.7 +5.6 93 +6 +6 1018.9 1002.3
З 3 10 км дымка 10/10 90 м +7.0 +6.0 93 +4 +4 1002.0
З 3 8 км дымка 10/10 90 м +6.1 +5.6 97 +3 +3 1018.8 1002.3
СЗ 3 14 км 10/10 150 м +7.0 +6.0 93 +4 +4 1002.0
З 2 10 км дымка 10/10 150 м +6.1 +5.6 97 +3 +3 1018.6 1002.0
З 2 13 км 10/10 150 м +6.1 +5.6 97 +3 +3 1018.7 1002.0
ЮЗ 2 11 км 10/10 210 м +6.7 +5.6 93 +4 +4 1018.6 1002.0 +5.6 +6.7
Ю 2 16 км 10/10 210 м +6.7 +5.6 93 +4 +4 1018.9 1002.3
Ю 2 14 км 2/2 270 м +5.0 +3.9 93 +2 +2 1019.5 1003.0
ЮВ 2 16 км 8/8 600 м +5.0 +4.0 93 +2 +2 1003.3
В 2 11 км 10/10 600 м +5.0 +5.0 100 +2 +2 1020.2 1003.6
ЮВ 2 13 км 10/10 720 м +5.0 +4.4 96 +2 +2 1020.5 1003.6
В 2 13 км 10/10 780 м +5.0 +4.4 96 +2 +2 1021.0 1004.3
ЮВ 2 10 км дымка 10/10 780 м +3.9 +3.9 100 +1 +1 1021.9 1005.3 +3.9 +6.7
ЮВ 2 10 км дымка 10/10 900 м +5.0 +4.4 96 +2 +2 1022.2 1005.6
В 2 11 км 10/10 960 м +4.4 +3.9 97 +1 +1 1022.0 1005.3
штиль 0 11 км 10/10 960 м +4.4 +3.9 97 +3 +3 1021.7 1005.0
штиль 0 11 км 10/10 600 м +4.4 +3.9 97 +3 +3 1022.1 1005.3
штиль 0 10 км дымка 10/10 510 м +4.4 +3.9 97 +3 +3 1022.4 1005.6
штиль 0 13 км 10/10 840 м +5.6 +4.4 92 +5 +5 1022.6 1006.0 +3.3 +5.6
штиль 0 14 км 10/10 900 м +5.0 +4.0 93 +4 +4 1006.0
Местоположение метеостанции Porterville Municipal Airport: широта 36.0333 долгота -119.0667 высота над уровнем моря 135 м.
В архиве по умолчанию представлена погода в Портервилле за последние 1-2 суток. Обновление информации о фактической погоде в базе происходит ежечасно! Архивные данные за месяц целиком и за предыдущие месяцы Вы можете получить, выбрав интересующий диапазон дат из раскрывающегося списка и нажав кнопку "Ввод!".
Внимание! Архив погоды МЕТАР в базе сайта по станциям, не включенным в климатический монитор, хранится не более 60 дней. Нет смысла пытаться выбрать более раннюю дату.
*Определитесь, кто Вы:
Внимание! Время в таблицах - местное (без учета летнего времени). Для получения всемирного времени необходимо вычесть поправку, которая равна -8 ч.
Смотрите также архив погоды в соседних городах и на ближайших метеорологических станциях:
Партнеры нашего сайта:      
Пояснения к столбцам:
  • Ветер - указаны скорость ветра в м/с - средняя за 10 мин, порывы в срок и между сроками (в фигурных скобках) и направление, откуда дует ветер: С - северный,
  • СВ - северо-восточный, В - восточный, ЮВ - юго-восточный, Ю - южный, ЮЗ - юго-западный, З - западный, СЗ - северо-западный.
  • Видимость - горизонтальная дальность видимости в метрах или километрах. При видимости от 1 до 10 км при отсутствии осадков обычно наблюдается дымка, при ухудшении видимости до 1 км и менее - туман. В сухую погоду видимость может ухудшаться дымом, пылью или мглою.
  • Явления - указаны атмосферные явления, наблюдавшиеся в срок или в последний час перед сроком; фигурными скобками обозначены явления, наблюдавшиеся между сроками (за 1-3 часа до срока); квадратными скобками обозначены град или гололедные отложения с указанием их диаметра в мм.
  • Облачность - указаны через наклонную черту общая и нижняя облачность в баллах и высота нижней границы облаков в метрах; квадратными скобками обозначены формы облаков: Ci - перистые, Cs - перисто-слоистые, Cc - перисто-кучевые, Ac - высококучевые, As - высокослоистые, Sc - слоисто-кучевые, Ns - слоисто-дождевые, Cu - кучевые, Cb - кучево-дождевые. Подробнее классификацию облаков см. в Атласе облаков (PDF).
  • T - Температура воздуха - температура, измеренная на высоте 2 м над землей.
  • Td - Температура точки росы - температура, при понижении до которой содержащийся в воздухе водяной пар достигнет насыщения.
  • f - Относительная влажность воздуха - влажноcть воздуха, измеренная на высоте 2 м над землей.
  • Te - Эффективная температура - температура, которую ощущает одетый по сезону человек в тени. Характеристика душности погоды. При расчете учитывается влияние влажности воздуха и скорости ветра на теплоощущения человека.
  • Tes - Эффективная температура на солнце - температура, которую ощущает человек, с поправкой на солнечный нагрев. Характеристика знойности погоды. Зависит от высоты солнца над горизонтом, облачности и скорости ветра. Ночью, в пасмурную погоду, а также при ветре 12 м/с и более поправка равна нулю.
  • P - Атмосферное давление - приведенное к уровню моря атмосферное давление.
  • Po - Атмосферное давление - измеренное на уровне метеостанции атмосферное давление.
  • Tmin - Минимальная температура - минимум температуры воздуха на высоте 2 м над землей.
  • Tmax - Максимальная температура - максимум температуры воздуха на высоте 2 м над землей.
  • R - Количество осадков - Количество выпавших осадков за период времени, мм. При наведении курсора мыши на число - период времени, за который выпало указанное количество осадков.
  • R24 - Количество осадков - Количество выпавших осадков за 24 часа, мм.
  • S - Снежный покров - Высота снежного покрова, см. При наведении курсора мыши на число - состояние снежного покрова и степень покрытия местности в баллах.